Flag for Oman Weather past 2 weeks in Salalah, Oman

Now
77 °F

Warm.


Feels Like: 78 °F
Forecast: 79 / 85 °F
Wind: 7 mph from South

Location: Salalah Airport

Current Time: Jul 25, 2014 at 1:46:40 PM

Latest Report: Jul 25, 2014 at 12:50 PM


Visibility: N/A

Pressure: 29.68 "Hg

Humidity: 89%

Dew point: 73 °F

Location of SalalahLocation

Historic Weather in Salalah — Graph

°F

Salalah temperature yesterday

Maximum temperature yesterday: 79 °F (at 1:50 PM)
Minimum temperature yesterday: 75 °F (at 2:50 AM)
Average temperature yesterday: 77 °F

Past Weeks' High & Low Weather Summary

 TemperatureHumidityPressure
High86 °F (Jul 16, 12:50 PM)94% (Jul 11, 1:50 AM)29.74 "Hg (Jul 11, 1:50 AM)
Low75 °F (Jul 20, 1:50 AM)66% (Jul 16, 12:50 PM)29.50 "Hg (Jul 17, 3:50 PM)
Average79 °F87%29.62 "Hg
* Reported Jul 10 11:50 AM — Jul 25 11:50 AM, Salalah, Weather by CustomWeather, © 2014

Note: Actual official high and low records may vary slightly from our data, if they occured in-between our weather recording intervals... More about our weather records

Advertising

Salalah weather history for previous 24 hours

 ConditionsComfort  
Time TempWeatherWind HumidityBarometerVisibility
11:50 AM
Jul 25
77 °FDrizzle. Cloudy.6 mph89%29.71 "Hg2 mi
10:50 AM77 °FWarm.5 mph89%29.71 "Hg2 mi
9:50 AM77 °FWarm.6 mph89%29.71 "Hg3 mi
8:50 AM77 °FDrizzle. Cloudy.3 mph89%29.71 "Hg1 mi
7:50 AM77 °FDrizzle. Cloudy.6 mph89%29.71 "Hg1 mi
6:50 AM77 °FCloudy.3 mph89%29.68 "Hg2 mi
5:50 AM77 °FWarm.2 mph89%29.65 "Hg2 mi
4:50 AM77 °FMostly cloudy.3 mph89%29.65 "Hg2 mi
3:50 AM77 °FWarm.5 mph89%29.65 "Hg4 mi
2:50 AM77 °FWarm.5 mph89%29.62 "Hg3 mi
1:50 AM77 °FWarm.2 mph89%29.65 "Hg2 mi
12:50 AM77 °FWarm.3 mph89%29.65 "Hg2 mi
11:50 PM
Jul 24
77 °FWarm.3 mph89%29.68 "Hg3 mi
10:50 PM77 °FWarm.3 mph89%29.68 "Hg3 mi
9:50 PM77 °FMostly cloudy.2 mph89%29.68 "Hg2 mi
8:50 PM77 °FWarm.3 mph89%29.68 "Hg3 mi
7:50 PM77 °FWarm.5 mph89%29.65 "Hg3 mi
6:50 PM77 °FMore clouds than sun.7 mph89%29.65 "Hg2 mi
5:50 PM79 °FWarm.7 mph84%29.62 "Hg3 mi
4:50 PM79 °FCloudy.8 mph84%29.62 "Hg2 mi
3:50 PM79 °FCloudy.9 mph84%29.62 "Hg3 mi
2:50 PM79 °FWarm.8 mph84%29.62 "Hg5 mi
1:50 PM79 °FWarm.9 mph84%29.62 "Hg5 mi
Weather by CustomWeather, © 2014

See weather overviewHow to use our weather pages